Location: Carrizalito
(10.3833°N, 67.0217°W)
Time: 03:53:29
(UTC+00:00)

Meteor 1-11 Rocket - Pass Details

Date: 11 July 2022
Orbit: 830 x 916 km, 81.2° (Epoch: 13 August)

Event Time Altitude Azimuth Distance (km) Brightness Sun altitude
Exits shadow 06:52:49 21° 63° (ENE) 1,943 6.0 -42.9°
Drops below altitude 10° 06:55:26 10° 40° (NE) 2,583 6.8 -42.4°
Sets 06:58:18 0° 27° (NNE) 3,514 7.7 -41.9°
